Meteo Giornale » Osservazioni meteo Italia » Torino-Caselle

ore: 04:20 - Osservazioni Meteo Torino-Caselle
Lat. 45° 13' N Lon. 7° 39' E Alt. 301 metri s.l.m.

molto_nuvoloso Europe/Rome

21 °C

Molto Nuvoloso

Temp. 24 Ore

20 °C

25 °C

Nord

3.7 Km/h

Dew point 20 °C

Umidità 94 %

Visibilità  10 Km

Il sole sorge alle ore 06:08

Il sole tramonta alle ore 21:03

Data e Ora Cielo e Fenomeni T °C DP °C Um. % Pres. hPa Vis. km Vento km/h
Oggi h: 04:20 molto_nuvoloso Molto Nuvoloso 21 20 94 1015 10 N 3.7
Oggi h: 03:50 molto_nuvoloso Molto Nuvoloso 21 20 94 1015 10 N 3.7
Oggi h: 03:20 molto_nuvoloso Molto Nuvoloso 21 20 94 1015 10 N 5.5
Oggi h: 02:50 molto_nuvoloso Molto Nuvoloso 21 20 94 1015 10 N 5.5
Oggi h: 02:20 molto_nuvoloso Molto Nuvoloso 21 20 94 1015 10 N 5.5
Oggi h: 01:50 molto_nuvoloso Molto Nuvoloso 21 20 94 1015 10 N 5.5
Oggi h: 01:20 molto_nuvoloso Molto Nuvoloso 21 20 94 1016 10 N 3.7
Oggi h: 00:50 molto_nuvoloso Molto Nuvoloso 21 20 94 1016 10 N 5.5
Oggi h: 00:20 molto_nuvoloso Molto Nuvoloso 21 19 88 1015 10 N/NO 7.4
Ieri h: 23:50 sereno Sereno 21 19 88 1015 10 N/NO 9.3
Ieri h: 23:20 nuvoloso Nuvoloso 21 19 88 1015 10 N 14.8
Ieri h: 22:50 sereno Sereno 21 20 94 1015 10 N 13
Ieri h: 22:20 nuvoloso Nuvoloso 22 20 88 1015 10 N/NE 9.3
Ieri h: 21:50 coperto_pioggia Pioggia 22 20 88 1015 10 N/NE 7.4
Ieri h: 21:20 coperto_pioggia Pioggia 23 20 83 1015 10 NE 7.4
Ieri h: 20:50 molto_nuvoloso Molto Nuvoloso 23 20 83 1015 10 N 5.5
Ieri h: 20:20 molto_nuvoloso Molto Nuvoloso 24 20 78 1015 10 N 5.5
Ieri h: 19:50 molto_nuvoloso Molto Nuvoloso 24 20 78 1015 10 N 5.5
Ieri h: 19:20 nuvoloso Nuvoloso 24 20 78 1014 10 N/NE 11.1
Ieri h: 18:50 nuvoloso Nuvoloso 24 20 78 1015 10 NE 9.3
Ieri h: 18:20 molto_nuvoloso Molto Nuvoloso 24 20 78 1015 10 E/NE 11.1
Ieri h: 17:50 nuvoloso Nuvoloso 25 20 73 1015 10 E/NE 11.1
Ieri h: 17:20 nuvoloso Nuvoloso 24 21 83 1015 10 N/NE 13
Ieri h: 16:50 coperto_temporali Temporale 23 21 88 1015 7 N 11.1
Ieri h: 16:20 nuvoloso_temporali Temporale con Pioggia 21 20 94 1015 0.9 N 24
Ieri h: 15:50 nuvoloso Nuvoloso 24 19 73 1015 10 NE 22.2
Ieri h: 15:20 coperto_temporali Temporale 24 19 73 1016 10 NE 20.3
Ieri h: 14:50 nuvoloso Nuvoloso 25 20 73 1015 10 E/NE 16.7
Ieri h: 14:20 nuvoloso Nuvoloso 25 19 69 1016 9 E/NE 22.2
Ieri h: 13:50 nuvoloso Nuvoloso 25 20 73 1016 9 E 20.3
Ieri h: 13:20 molto_nuvoloso Molto Nuvoloso 24 19 73 1016 9 E 20.3
Ieri h: 12:50 molto_nuvoloso Molto Nuvoloso 25 19 69 1016 10 E 13
Ieri h: 12:20 nuvoloso Nuvoloso 24 19 73 1016 10 E 11.1
Ieri h: 11:50 molto_nuvoloso Molto Nuvoloso 24 18 69 1016 10 E 9.3
Ieri h: 11:20 molto_nuvoloso Molto Nuvoloso 23 18 73 1016 10 E 9.3
Ieri h: 10:50 nuvoloso Nuvoloso 23 18 73 1016 10 E/NE 7.4
Ieri h: 10:20 molto_nuvoloso Molto Nuvoloso 24 18 69 1016 10 N 5.5
Ieri h: 09:50 molto_nuvoloso Molto Nuvoloso 22 18 78 1017 10 N 3.7
Ieri h: 09:20 molto_nuvoloso Molto Nuvoloso 22 18 78 1016 10 N 3.7
Ieri h: 08:50 molto_nuvoloso Molto Nuvoloso 22 18 78 1016 10 N 3.7
Ieri h: 08:20 molto_nuvoloso Molto Nuvoloso 21 19 88 1016 10 N 5.5
Ieri h: 07:50 molto_nuvoloso Molto Nuvoloso 21 19 88 1016 10 NO 7.4
Ieri h: 07:20 molto_nuvoloso Molto Nuvoloso 20 19 93 1016 10 N 5.5
Ieri h: 06:50 coperto_pioggia Pioggia Debole 20 19 93 1016 10 N 3.7
Ieri h: 06:20 coperto_pioggia Pioggia 20 19 93 1016 8 N 1.8
Ieri h: 05:50 molto_nuvoloso Molto Nuvoloso 20 19 93 1016 10 N 1.8
Ieri h: 05:20 molto_nuvoloso Molto Nuvoloso 20 18 88 1016 10 N 5.5
Ieri h: 04:50 molto_nuvoloso Molto Nuvoloso 20 18 88 1016 10 N 3.7